Regional Weather Roundup
Issued by NWS Bismarck, ND

Home | Current Version | Previous Version | Text Only | Print | Product List | Glossary On
Versions: 1 2 3 4 5 6 7 8 9 10 11 12 13 14 15 16 17 18 19 20 21 22 23 24 25 26 27 28 29 30 31 32 33 34 35 36 37 38 39 40 41 42 43 44 45 46 47 48 49 50
000
ASUS43 KBIS 061702
RWRBIS

NWR BROADCAST TEXT
NATIONAL WEATHER SERVICE BISMARCK ND
1200 PM CDT MON JUL 06 2015

NOTE: "FAIR" INDICATES FEW OR NO CLOUDS BELOW 12,000 FEET WITH NO
SIGNIFICANT WEATHER AND/OR OBSTRUCTIONS TO VISIBILITY.


CITY           SKY/WX    TMP DP  RH WIND       PRES   REMARKS
WILLISTON      PTSUNNY   66  51  58 N10       30.20S HAZE
MINOT          CLOUDY    61  51  70 N7        30.17R HAZE
MINOT AFB      NOT AVBL
BISMARCK       CLOUDY    68  52  56 NW12      30.16R HAZE
DICKINSON      PTSUNNY   66  50  56 NW9       30.18S
GARRISON         N/A     64  53  67 N5        30.16R
HETTINGER ARPT CLOUDY    66  50  56 N10       30.21S
JAMESTOWN      PTSUNNY   64  53  67 N15       30.12R
HAZEN          PTSUNNY   64  50  59 NW8       30.17S HAZE
OAKES            N/A     66  55  68 N13       30.10R
STANLEY        PTSUNNY   61  57  88 N9        30.20R FOG
$$

CITY           SKY/WX    TMP DP  RH WIND       PRES   REMARKS
GRAND FORKS    PTSUNNY   62  48  60 N17G23    30.10S
GRAND FORKS AF MOSUNNY   62  48  59 N17       30.11R
DEVILS LAKE    PTSUNNY   61  46  59 NW14G20   30.13S
FARGO          PTSUNNY   65  48  54 N21       30.07R
CAVALIER       CLOUDY    59  48  67 N15       30.12S
GRAFTON        PTSUNNY   61  50  67 N16       30.11F
GWINNER        FAIR      64  52  63 N14       30.10R
LANGDON        CLOUDY    61  48  63 N15       30.14S
ROLLA          CLOUDY    57  46  67 N13G18    30.17S
$$

CITY           SKY/WX    TMP DP  RH WIND       PRES   REMARKS
ABERDEEN       CLOUDY    68  56  65 N16       30.09R HAZE
MOBRIDGE       SUNNY     72  54  53 N15       30.12R
BUFFALO          N/A     69  50  50 VRB6      30.16S
RAPID CITY     PTSUNNY   64  55  72 NW13      30.24S
GLASGOW        MOSUNNY   66  47  50 CALM      30.21F
SIDNEY         MOSUNNY   66  50  55 NW10      30.20F
WOLF POINT     MOSUNNY   69  49  48 NW8       30.21F HAZE
GLENDIVE       MOSUNNY   68  48  49 NW10      30.22F
MILES CITY     CLOUDY    63  50  62 NW5       30.24S
BAKER          PTSUNNY   64  49  57 NW12G21   30.24R
$$

CITY           SKY/WX    TMP DP  RH WIND       PRES   REMARKS
BILLINGS       PTSUNNY   61  49  64 E6        30.28F
GREAT FALLS    MOSUNNY   61  48  62 E7        30.22F
$$




USA.gov is the U.S. government's official web portal to all federal, state and local government web resources and services.